,,,PA_Meas_PMT16A,,PR_Meas_QMR101_102,,RH_Meas_QMH101,,SR_Meas_QMS101,,TA_Meas_QMH101,,GenWind,,GenWind,
date,time,status,PA,status,PR,status,RH,status,SR,status,TA,status,DirAvg,status,SpdAvg,
2012-08-01, 00:00:04,VALID,1010.73,VALID,0,VALID,104,VALID,0.112112,VALID,24.2007,VALID,182,VALID,0.28125,
2012-08-01, 00:01:04,VALID,1010.73,VALID,0,VALID,104,VALID,0.112112,VALID,24.1988,VALID,172,VALID,0.198437,
2012-08-01, 00:02:04,VALID,1010.72,VALID,0,VALID,104,VALID,0.112112,VALID,24.1793,VALID,172,VALID,0,
2012-08-01, 00:03:04,VALID,1010.71,VALID,0,VALID,104,VALID,0.112112,VALID,24.1793,VALID,173,VALID,0,
2012-08-01, 00:04:04,VALID,1010.7,VALID,0,VALID,104,VALID,0.112112,VALID,24.1599,VALID,173,VALID,0,
2012-08-01, 00:05:04,VALID,1010.69,VALID,0,VALID,104,VALID,0.112112,VALID,24.1812,VALID,173,VALID,0.321484,
2012-08-01, 00:06:04,VALID,1010.67,VALID,0,VALID,104,VALID,0.112112,VALID,24.1599,VALID,151,VALID,0.621094,
2012-08-01, 00:07:04,VALID,1010.65,VALID,0,VALID,104,VALID,0.112112,VALID,24.1617,VALID,151,VALID,0.159375,
2012-08-01, 00:08:04,VALID,1010.65,VALID,0,VALID,104,VALID,0.112112,VALID,24.1599,VALID,151,VALID,0.434375,
2012-08-01, 00:09:04,VALID,1010.65,VALID,0,VALID,104,VALID,0.112112,VALID,24.1617,VALID,151,VALID,0.0621094,
2012-08-01, 00:10:04,VALID,1010.61,VALID,0,VALID,104,VALID,0.112112,VALID,24.1209,VALID,164,VALID,0.373437,
2012-08-01, 00:11:04,VALID,1010.6,VALID,0,VALID,104,VALID,0,VALID,24.1404,VALID,186,VALID,0.564453,
2012-08-01, 00:12:04,VALID,1010.56,VALID,0,VALID,104,VALID,0,VALID,24.1617,VALID,172,VALID,0.948047,
2012-08-01, 00:13:04,VALID,1010.57,VALID,0,VALID,104,VALID,0,VALID,24.2007,VALID,172,VALID,0.485156,
2012-08-01, 00:14:04,VALID,1010.55,VALID,0,VALID,104,VALID,0,VALID,24.2007,VALID,171,VALID,0.462891,
2012-08-01, 00:15:04,VALID,1010.56,VALID,0,VALID,104,VALID,0.112112,VALID,24.1793,VALID,173,VALID,0.469922,
2012-08-01, 00:16:04,VALID,1010.56,VALID,0,VALID,104,VALID,0.112112,VALID,24.1793,VALID,177,VALID,0.407813,
2012-08-01, 00:17:04,VALID,1010.54,VALID,0,VALID,104,VALID,0.112112,VALID,24.1599,VALID,177,VALID,0.448047,
2012-08-01, 00:18:04,VALID,1010.54,VALID,0,VALID,104,VALID,0.112112,VALID,24.1793,VALID,202,VALID,0.170312,
2012-08-01, 00:19:04,VALID,1010.52,VALID,0,VALID,104,VALID,0,VALID,24.1599,VALID,202,VALID,0.110156,
2012-08-01, 00:20:04,VALID,1010.55,VALID,0,VALID,104,VALID,0,VALID,24.1404,VALID,197,VALID,0.264062,
2012-08-01, 00:21:04,VALID,1010.52,VALID,0,VALID,104,VALID,0.112112,VALID,24.1599,VALID,197,VALID,0.730469,
2012-08-01, 00:22:04,VALID,1010.51,VALID,0,VALID,104,VALID,0,VALID,24.1599,VALID,178,VALID,0.587109,
2012-08-01, 00:23:04,VALID,1010.48,VALID,0,VALID,104,VALID,0.112112,VALID,24.1793,VALID,173,VALID,0.830078,
2012-08-01, 00:24:04,VALID,1010.47,VALID,0,VALID,104,VALID,0,VALID,24.1793,VALID,171,VALID,0.465625,
2012-08-01, 00:25:04,VALID,1010.43,VALID,0,VALID,104,VALID,0,VALID,24.1793,VALID,185,VALID,0.710156,
2012-08-01, 00:26:04,VALID,1010.39,VALID,0,VALID,104,VALID,0.112112,VALID,24.2007,VALID,176,VALID,0.869531,
2012-08-01, 00:27:04,VALID,1010.37,VALID,0,VALID,104,VALID,0.112112,VALID,24.2007,VALID,177,VALID,0.720703,
2012-08-01, 00:28:04,VALID,1010.31,VALID,0,VALID,104,VALID,0,VALID,24.1599,VALID,177,VALID,0.178906,
2012-08-01, 00:29:04,VALID,1010.3,VALID,0,VALID,104,VALID,0,VALID,24.1617,VALID,177,VALID,0.282422,
2012-08-01, 00:30:04,VALID,1010.27,VALID,0,VALID,104,VALID,0,VALID,24.1422,VALID,177,VALID,0.163672,
2012-08-01, 00:31:04,VALID,1010.23,VALID,0,VALID,104,VALID,0,VALID,24.1422,VALID,177,VALID,0.362109,
2012-08-01, 00:32:04,VALID,1010.25,VALID,0,VALID,104,VALID,0,VALID,24.1422,VALID,177,VALID,0.215234,
2012-08-01, 00:33:04,VALID,1010.24,VALID,0,VALID,104,VALID,0,VALID,24.1227,VALID,177,VALID,0.177734,
2012-08-01, 00:34:04,VALID,1010.25,VALID,0,VALID,104,VALID,0,VALID,24.1032,VALID,177,VALID,0.465234,
2012-08-01, 00:35:04,VALID,1010.22,VALID,0,VALID,104,VALID,0,VALID,24.1227,VALID,208,VALID,0.627344,
2012-08-01, 00:36:04,VALID,1010.24,VALID,0,VALID,104,VALID,0,VALID,24.1209,VALID,174,VALID,0.699219,
2012-08-01, 00:37:04,VALID,1010.24,VALID,0,VALID,104,VALID,0,VALID,24.1209,VALID,174,VALID,0.307813,
2012-08-01, 00:38:04,VALID,1010.2,VALID,0,VALID,104,VALID,0,VALID,24.1617,VALID,153,VALID,0.625781,
2012-08-01, 00:39:04,VALID,1010.2,VALID,0,VALID,104,VALID,0,VALID,24.1617,VALID,167,VALID,0.572266,
2012-08-01, 00:40:04,VALID,1010.19,VALID,0,VALID,104,VALID,0,VALID,24.1617,VALID,174,VALID,0.332422,
2012-08-01, 00:41:04,VALID,1010.17,VALID,0,VALID,104,VALID,0,VALID,24.1812,VALID,176,VALID,0.626562,
2012-08-01, 00:42:04,VALID,1010.17,VALID,0,VALID,104,VALID,0,VALID,24.1793,VALID,184,VALID,0.713281,
2012-08-01, 00:43:04,VALID,1010.14,VALID,0,VALID,104,VALID,0,VALID,24.2007,VALID,175,VALID,0.658984,
2012-08-01, 00:44:04,VALID,1010.15,VALID,0,VALID,104,VALID,0,VALID,24.2396,VALID,191,VALID,0.995703,
2012-08-01, 00:45:04,VALID,1010.12,VALID,0,VALID,104,VALID,0,VALID,24.2786,VALID,171,VALID,1.1418,
2012-08-01, 00:46:04,VALID,1010.1,VALID,0,VALID,104,VALID,0,VALID,24.2963,VALID,192,VALID,0.924219,
2012-08-01, 00:47:04,VALID,1010.08,VALID,0,VALID,104,VALID,0,VALID,24.2981,VALID,175,VALID,0.441406,
2012-08-01, 00:48:04,VALID,1010.08,VALID,0,VALID,103.924,VALID,0,VALID,24.2786,VALID,175,VALID,0.227734,
2012-08-01, 00:49:04,VALID,1010.1,VALID,0,VALID,103.947,VALID,0,VALID,24.2786,VALID,173,VALID,0,
2012-08-01, 00:50:04,VALID,1010.09,VALID,0,VALID,103.962,VALID,0,VALID,24.2591,VALID,173,VALID,0,
2012-08-01, 00:51:04,VALID,1010.1,VALID,0,VALID,103.954,VALID,0,VALID,24.2396,VALID,173,VALID,0,
2012-08-01, 00:52:04,VALID,1010.09,VALID,0,VALID,104,VALID,0,VALID,24.2396,VALID,173,VALID,0,
2012-08-01, 00:53:04,VALID,1010.07,VALID,0,VALID,104,VALID,0,VALID,24.2183,VALID,173,VALID,0,
2012-08-01, 00:54:04,VALID,1010.05,VALID,0,VALID,104,VALID,0,VALID,24.2007,VALID,173,VALID,0,
2012-08-01, 00:55:04,VALID,1010.03,VALID,0,VALID,104,VALID,0,VALID,24.2007,VALID,173,VALID,0.295703,
2012-08-01, 00:56:04,VALID,1010,VALID,0,VALID,104,VALID,0,VALID,24.2007,VALID,173,VALID,0.152734,
2012-08-01, 00:57:04,VALID,1010,VALID,0,VALID,104,VALID,0,VALID,24.1812,VALID,173,VALID,0,
2012-08-01, 00:58:04,VALID,1009.99,VALID,0,VALID,104,VALID,0,VALID,24.1812,VALID,173,VALID,0.419141,
2012-08-01, 00:59:04,VALID,1010.01,VALID,0,VALID,104,VALID,0,VALID,24.1812,VALID,171,VALID,0.662891,
2012-08-01, 01:00:04,VALID,1010.01,VALID,0,VALID,104,VALID,0,VALID,24.1599,VALID,169,VALID,0.570313,
2012-08-01, 01:01:04,VALID,1010.04,VALID,0,VALID,104,VALID,0,VALID,24.1404,VALID,168,VALID,0.339063,
2012-08-01, 01:02:04,VALID,1010.03,VALID,0,VALID,104,VALID,0,VALID,24.1812,VALID,185,VALID,0.942578,
2012-08-01, 01:03:04,VALID,1010.01,VALID,0,VALID,104,VALID,0.112112,VALID,24.1812,VALID,189,VALID,0.489844,
2012-08-01, 01:04:04,VALID,1010.01,VALID,0,VALID,104,VALID,0,VALID,24.1812,VALID,182,VALID,0.441016,
2012-08-01, 01:05:04,VALID,1010.02,VALID,0,VALID,104,VALID,0,VALID,24.1617,VALID,172,VALID,0.620313,
2012-08-01, 01:06:04,VALID,1010.02,VALID,0,VALID,104,VALID,0,VALID,24.1812,VALID,146,VALID,0.492578,
2012-08-01, 01:07:04,VALID,1010.02,VALID,0,VALID,104,VALID,0,VALID,24.2202,VALID,166,VALID,0.927344,
2012-08-01, 01:08:04,VALID,1010.02,VALID,0,VALID,104,VALID,0,VALID,24.2396,VALID,157,VALID,0.717578,
2012-08-01, 01:09:04,VALID,1010.02,VALID,0,VALID,104,VALID,0,VALID,24.2591,VALID,176,VALID,0.840625,
2012-08-01, 01:10:04,VALID,1010,VALID,0,VALID,104,VALID,0,VALID,24.2786,VALID,163,VALID,0.709766,
2012-08-01, 01:11:04,VALID,1010,VALID,0,VALID,104,VALID,0,VALID,24.2981,VALID,159,VALID,0.615625,
2012-08-01, 01:12:04,VALID,1009.95,VALID,0,VALID,104,VALID,0,VALID,24.2786,VALID,159,VALID,0.00195313,
2012-08-01, 01:13:04,VALID,1009.95,VALID,0,VALID,104,VALID,0,VALID,24.2786,VALID,154,VALID,0.158594,
2012-08-01, 01:14:04,VALID,1009.91,VALID,0,VALID,103.939,VALID,0,VALID,24.2591,VALID,165,VALID,0.359766,
2012-08-01, 01:15:04,VALID,1009.93,VALID,0,VALID,103.992,VALID,0,VALID,24.2591,VALID,173,VALID,0,
2012-08-01, 01:16:04,VALID,1009.91,VALID,0,VALID,104,VALID,0,VALID,24.2396,VALID,173,VALID,0.546875,
2012-08-01, 01:17:04,VALID,1009.93,VALID,0,VALID,103.901,VALID,0,VALID,24.2202,VALID,172,VALID,0.430469,
2012-08-01, 01:18:04,VALID,1009.95,VALID,0,VALID,104,VALID,0,VALID,24.2396,VALID,171,VALID,0.930859,
2012-08-01, 01:19:04,VALID,1009.96,VALID,0,VALID,104,VALID,0,VALID,24.2591,VALID,155,VALID,0.455469,
2012-08-01, 01:20:04,VALID,1009.92,VALID,0,VALID,104,VALID,0,VALID,24.2786,VALID,215,VALID,0.69375,
2012-08-01, 01:21:04,VALID,1009.95,VALID,0,VALID,104,VALID,0,VALID,24.2378,VALID,170,VALID,0.832422,
2012-08-01, 01:22:04,VALID,1009.91,VALID,0,VALID,104,VALID,0.112112,VALID,24.2768,VALID,170,VALID,1.26172,
2012-08-01, 01:23:04,VALID,1009.9,VALID,0,VALID,104,VALID,0,VALID,24.3566,VALID,186,VALID,0.699609,
2012-08-01, 01:24:04,VALID,1009.91,VALID,0,VALID,103.855,VALID,0,VALID,24.3566,VALID,195,VALID,0.503906,
2012-08-01, 01:25:04,VALID,1009.89,VALID,0,VALID,103.664,VALID,0.112112,VALID,24.3352,VALID,194,VALID,0.506641,
2012-08-01, 01:26:04,VALID,1009.9,VALID,0,VALID,103.68,VALID,0,VALID,24.3547,VALID,158,VALID,0.514844,
2012-08-01, 01:27:04,VALID,1009.9,VALID,0,VALID,103.596,VALID,0,VALID,24.3547,VALID,173,VALID,0.553516,
2012-08-01, 01:28:04,VALID,1009.89,VALID,0,VALID,103.314,VALID,0,VALID,24.3566,VALID,194,VALID,0.14375,
2012-08-01, 01:29:04,VALID,1009.87,VALID,0,VALID,103.436,VALID,0,VALID,24.3566,VALID,212,VALID,1.03164,
2012-08-01, 01:30:04,VALID,1009.91,VALID,0,VALID,103.535,VALID,0.112112,VALID,24.3742,VALID,163,VALID,1.15352,
2012-08-01, 01:31:04,VALID,1009.89,VALID,0,VALID,103.382,VALID,0.112112,VALID,24.3742,VALID,168,VALID,0.327734,
2012-08-01, 01:32:04,VALID,1009.88,VALID,0,VALID,103.26,VALID,0.112112,VALID,24.3547,VALID,165,VALID,0.601953,
2012-08-01, 01:33:04,VALID,1009.89,VALID,0,VALID,103.375,VALID,0,VALID,24.3761,VALID,177,VALID,0.629687,
2012-08-01, 01:34:04,VALID,1009.89,VALID,0,VALID,103.329,VALID,0.112112,VALID,24.3761,VALID,177,VALID,0,
2012-08-01, 01:35:04,VALID,1009.88,VALID,0,VALID,103.39,VALID,0.112112,VALID,24.3566,VALID,169,VALID,0.769922,
2012-08-01, 01:36:04,VALID,1009.86,VALID,0,VALID,103.398,VALID,0.112112,VALID,24.3352,VALID,167,VALID,0.298828,
2012-08-01, 01:37:04,VALID,1009.9,VALID,0,VALID,103.39,VALID,0,VALID,24.3158,VALID,176,VALID,0.389062,
2012-08-01, 01:38:04,VALID,1009.88,VALID,0,VALID,103.489,VALID,0.112112,VALID,24.3371,VALID,178,VALID,1.04844,
2012-08-01, 01:39:04,VALID,1009.89,VALID,0,VALID,103.459,VALID,0.112112,VALID,24.3371,VALID,166,VALID,0.401953,
2012-08-01, 01:40:04,VALID,1009.92,VALID,0,VALID,103.436,VALID,0.112112,VALID,24.2768,VALID,166,VALID,0.128516,
2012-08-01, 01:41:04,VALID,1009.91,VALID,0,VALID,103.726,VALID,0,VALID,24.2963,VALID,167,VALID,0.920703,
2012-08-01, 01:42:04,VALID,1009.94,VALID,0,VALID,103.733,VALID,0.112112,VALID,24.3158,VALID,167,VALID,0.592969,
2012-08-01, 01:43:04,VALID,1009.91,VALID,0,VALID,103.733,VALID,0,VALID,24.3371,VALID,166,VALID,0.300391,
2012-08-01, 01:44:04,VALID,1009.93,VALID,0,VALID,103.703,VALID,0,VALID,24.3371,VALID,155,VALID,0.607031,
2012-08-01, 01:45:04,VALID,1009.92,VALID,0,VALID,103.68,VALID,0,VALID,24.3176,VALID,155,VALID,0.0449219,
2012-08-01, 01:46:04,VALID,1009.93,VALID,0,VALID,103.581,VALID,0,VALID,24.2981,VALID,155,VALID,0.590234,
2012-08-01, 01:47:04,VALID,1009.88,VALID,0,VALID,103.649,VALID,0,VALID,24.2981,VALID,158,VALID,0.441797,
2012-08-01, 01:48:04,VALID,1009.85,VALID,0,VALID,103.565,VALID,0,VALID,24.2786,VALID,191,VALID,0.832031,
2012-08-01, 01:49:05,VALID,1009.82,VALID,0,VALID,103.718,VALID,0,VALID,24.2786,VALID,178,VALID,0.614062,
2012-08-01, 01:50:04,VALID,1009.8,VALID,0,VALID,103.542,VALID,0,VALID,24.2591,VALID,178,VALID,0,
2012-08-01, 01:51:05,VALID,1009.78,VALID,0,VALID,103.565,VALID,0,VALID,24.261,VALID,170,VALID,0.137109,
2012-08-01, 01:52:05,VALID,1009.78,VALID,0,VALID,103.664,VALID,0,VALID,24.261,VALID,177,VALID,0.595312,
2012-08-01, 01:53:05,VALID,1009.78,VALID,0,VALID,103.764,VALID,0,VALID,24.2202,VALID,177,VALID,0,
2012-08-01, 01:54:05,VALID,1009.78,VALID,0,VALID,103.779,VALID,0,VALID,24.2415,VALID,177,VALID,0.421094,
2012-08-01, 01:55:05,VALID,1009.78,VALID,0,VALID,103.855,VALID,0,VALID,24.2007,VALID,177,VALID,0,
2012-08-01, 01:56:05,VALID,1009.76,VALID,0,VALID,103.87,VALID,0,VALID,24.1812,VALID,177,VALID,0,
2012-08-01, 01:57:05,VALID,1009.74,VALID,0,VALID,104,VALID,0,VALID,24.1812,VALID,178,VALID,0.0328125,
2012-08-01, 01:58:05,VALID,1009.69,VALID,0,VALID,104,VALID,0,VALID,24.2025,VALID,187,VALID,0.321094,
2012-08-01, 01:59:05,VALID,1009.7,VALID,0,VALID,104,VALID,0,VALID,24.183,VALID,176,VALID,0.668359,
2012-08-01, 02:00:05,VALID,1009.7,VALID,0,VALID,104,VALID,0.112112,VALID,24.1793,VALID,203,VALID,0.994141,
2012-08-01, 02:01:05,VALID,1009.7,VALID,0,VALID,104,VALID,0.112112,VALID,24.2007,VALID,182,VALID,2.18672,
2012-08-01, 02:02:05,VALID,1009.71,VALID,0,VALID,104,VALID,0,VALID,24.2396,VALID,172,VALID,1.08203,
2012-08-01, 02:03:05,VALID,1009.72,VALID,0,VALID,104,VALID,0,VALID,24.2378,VALID,181,VALID,0.985156,
2012-08-01, 02:04:05,VALID,1009.72,VALID,0,VALID,103.931,VALID,0.112112,VALID,24.2786,VALID,155,VALID,0.501172,
2012-08-01, 02:05:05,VALID,1009.73,VALID,0,VALID,103.863,VALID,0.112112,VALID,24.3176,VALID,175,VALID,1.65508,
2012-08-01, 02:06:05,VALID,1009.75,VALID,0,VALID,103.626,VALID,0.112112,VALID,24.3761,VALID,158,VALID,1.04219,
2012-08-01, 02:07:05,VALID,1009.75,VALID,0,VALID,103.367,VALID,0.112112,VALID,24.3566,VALID,168,VALID,0.571484,
2012-08-01, 02:08:05,VALID,1009.75,VALID,0,VALID,103.199,VALID,0.112112,VALID,24.3176,VALID,168,VALID,0,
2012-08-01, 02:09:05,VALID,1009.78,VALID,0,VALID,103.237,VALID,0,VALID,24.3176,VALID,168,VALID,0,
2012-08-01, 02:10:05,VALID,1009.79,VALID,0,VALID,103.146,VALID,0.112112,VALID,24.2573,VALID,168,VALID,0.0429688,
2012-08-01, 02:11:05,VALID,1009.81,VALID,0,VALID,103.215,VALID,0,VALID,24.2378,VALID,168,VALID,0.233984,
2012-08-01, 02:12:05,VALID,1009.82,VALID,0,VALID,103.527,VALID,0.112112,VALID,24.2591,VALID,139,VALID,0.758984,
2012-08-01, 02:13:05,VALID,1009.81,VALID,0,VALID,103.68,VALID,0.112112,VALID,24.2786,VALID,166,VALID,1.43008,
2012-08-01, 02:14:05,VALID,1009.83,VALID,0,VALID,103.588,VALID,0,VALID,24.2786,VALID,159,VALID,0.053125,
2012-08-01, 02:15:05,VALID,1009.87,VALID,0,VALID,103.436,VALID,0.112112,VALID,24.2378,VALID,160,VALID,0.800781,
2012-08-01, 02:16:05,VALID,1009.86,VALID,0,VALID,103.367,VALID,0.112112,VALID,24.2396,VALID,161,VALID,0.5,
2012-08-01, 02:17:05,VALID,1009.85,VALID,0,VALID,103.504,VALID,0,VALID,24.2183,VALID,161,VALID,0.125391,
2012-08-01, 02:18:05,VALID,1009.86,VALID,0,VALID,103.558,VALID,0,VALID,24.1988,VALID,163,VALID,0.368359,
2012-08-01, 02:19:05,VALID,1009.85,VALID,0,VALID,103.817,VALID,0,VALID,24.2591,VALID,181,VALID,0.852344,
2012-08-01, 02:20:05,VALID,1009.82,VALID,0,VALID,103.634,VALID,0,VALID,24.2396,VALID,177,VALID,0.253125,
2012-08-01, 02:21:05,VALID,1009.83,VALID,0,VALID,103.55,VALID,0.112112,VALID,24.2202,VALID,174,VALID,0.491016,
2012-08-01, 02:22:05,VALID,1009.83,VALID,0,VALID,103.649,VALID,0,VALID,24.2202,VALID,163,VALID,0.719141,
2012-08-01, 02:23:05,VALID,1009.82,VALID,0,VALID,103.703,VALID,0.112112,VALID,24.1988,VALID,176,VALID,0.958984,
2012-08-01, 02:24:05,VALID,1009.8,VALID,0,VALID,103.733,VALID,0.112112,VALID,24.2183,VALID,153,VALID,1.03711,
2012-08-01, 02:25:05,VALID,1009.81,VALID,0,VALID,103.71,VALID,0,VALID,24.2202,VALID,173,VALID,0.570703,
2012-08-01, 02:26:05,VALID,1009.83,VALID,0,VALID,103.649,VALID,0,VALID,24.2202,VALID,189,VALID,0.976953,
2012-08-01, 02:27:05,VALID,1009.83,VALID,0,VALID,103.642,VALID,0,VALID,24.2007,VALID,169,VALID,0.735156,
2012-08-01, 02:28:05,VALID,1009.83,VALID,0,VALID,103.619,VALID,0,VALID,24.2007,VALID,170,VALID,0.288672,
2012-08-01, 02:29:05,VALID,1009.82,VALID,0,VALID,103.687,VALID,0,VALID,24.1812,VALID,166,VALID,0.567578,
2012-08-01, 02:30:05,VALID,1009.78,VALID,0,VALID,103.657,VALID,0,VALID,24.1404,VALID,166,VALID,0.337891,
2012-08-01, 02:31:05,VALID,1009.77,VALID,0,VALID,103.794,VALID,0,VALID,24.1812,VALID,157,VALID,0.7,
2012-08-01, 02:32:05,VALID,1009.76,VALID,0,VALID,103.802,VALID,0,VALID,24.1599,VALID,138,VALID,0.523047,
2012-08-01, 02:33:05,VALID,1009.74,VALID,0,VALID,103.649,VALID,0,VALID,24.1422,VALID,138,VALID,0.496875,
2012-08-01, 02:34:05,VALID,1009.75,VALID,0,VALID,103.657,VALID,0,VALID,24.1032,VALID,138,VALID,0.616016,
2012-08-01, 02:35:05,VALID,1009.74,VALID,0,VALID,103.657,VALID,0.112112,VALID,24.0624,VALID,138,VALID,0,
2012-08-01, 02:36:05,VALID,1009.74,VALID,0,VALID,103.924,VALID,0.112112,VALID,24.0837,VALID,152,VALID,0.671875,
2012-08-01, 02:37:05,VALID,1009.77,VALID,0,VALID,103.97,VALID,0.112112,VALID,24.0429,VALID,152,VALID,0.506641,
2012-08-01, 02:38:05,VALID,1009.74,VALID,0,VALID,104,VALID,0.112112,VALID,24.004,VALID,152,VALID,0.307422,
2012-08-01, 02:39:05,VALID,1009.73,VALID,0,VALID,104,VALID,0.112112,VALID,24.0448,VALID,151,VALID,0.469922,
2012-08-01, 02:40:05,VALID,1009.71,VALID,0,VALID,104,VALID,0.112112,VALID,24.004,VALID,151,VALID,0.553516,
2012-08-01, 02:41:05,VALID,1009.69,VALID,0,VALID,104,VALID,0,VALID,24.004,VALID,143,VALID,0.379687,
2012-08-01, 02:42:05,VALID,1009.65,VALID,0,VALID,104,VALID,0,VALID,23.9455,VALID,143,VALID,0.342187,
2012-08-01, 02:43:05,VALID,1009.66,VALID,0,VALID,104,VALID,0,VALID,23.926,VALID,143,VALID,0.399219,
2012-08-01, 02:44:05,VALID,1009.64,VALID,0,VALID,104,VALID,0,VALID,23.9065,VALID,143,VALID,0.119141,
2012-08-01, 02:45:05,VALID,1009.66,VALID,0,VALID,104,VALID,0.112112,VALID,23.8676,VALID,143,VALID,0.191406,
2012-08-01, 02:46:05,VALID,1009.66,VALID,0,VALID,104,VALID,0.112112,VALID,23.9084,VALID,143,VALID,0.376953,
2012-08-01, 02:47:05,VALID,1009.64,VALID,0,VALID,104,VALID,0.112112,VALID,23.8694,VALID,143,VALID,0.181641,
2012-08-01, 02:48:05,VALID,1009.64,VALID,0,VALID,104,VALID,0,VALID,23.8889,VALID,143,VALID,0,
2012-08-01, 02:49:05,VALID,1009.66,VALID,0,VALID,104,VALID,0,VALID,23.8481,VALID,143,VALID,0,
2012-08-01, 02:50:05,VALID,1009.65,VALID,0,VALID,104,VALID,0.112112,VALID,23.8499,VALID,143,VALID,0.1375,
2012-08-01, 02:51:05,VALID,1009.66,VALID,0,VALID,104,VALID,0.112112,VALID,23.8694,VALID,143,VALID,0.0078125,
2012-08-01, 02:52:05,VALID,1009.69,VALID,0,VALID,104,VALID,0,VALID,23.8694,VALID,143,VALID,0.384766,
2012-08-01, 02:53:05,VALID,1009.69,VALID,0,VALID,104,VALID,0.112112,VALID,23.8091,VALID,143,VALID,0,
2012-08-01, 02:54:05,VALID,1009.71,VALID,0,VALID,104,VALID,0,VALID,23.7914,VALID,143,VALID,0,
2012-08-01, 02:55:05,VALID,1009.71,VALID,0,VALID,104,VALID,0.112112,VALID,23.6922,VALID,143,VALID,0.000390625,
2012-08-01, 02:56:05,VALID,1009.72,VALID,0,VALID,104,VALID,0.112112,VALID,23.6356,VALID,76,VALID,0.241797,
2012-08-01, 02:57:05,VALID,1009.75,VALID,0,VALID,104,VALID,0,VALID,23.5169,VALID,76,VALID,0.489062,
2012-08-01, 02:58:05,VALID,1009.7,VALID,0,VALID,104,VALID,0,VALID,23.4797,VALID,76,VALID,0.00585938,
2012-08-01, 02:59:05,VALID,1009.75,VALID,0,VALID,104,VALID,0,VALID,23.4407,VALID,76,VALID,0,
2012-08-01, 03:00:05,VALID,1009.77,VALID,0,VALID,104,VALID,0,VALID,23.3823,VALID,76,VALID,0,
2012-08-01, 03:01:05,VALID,1009.78,VALID,0,VALID,104,VALID,0,VALID,23.3433,VALID,76,VALID,0,
2012-08-01, 03:02:05,VALID,1009.76,VALID,0,VALID,104,VALID,0,VALID,23.3043,VALID,76,VALID,0.283594,
2012-08-01, 03:03:05,VALID,1009.73,VALID,0,VALID,104,VALID,0,VALID,23.2459,VALID,76,VALID,0.0699219,
2012-08-01, 03:04:05,VALID,1009.74,VALID,0,VALID,104,VALID,0,VALID,23.2069,VALID,76,VALID,0,
2012-08-01, 03:05:05,VALID,1009.69,VALID,0,VALID,104,VALID,0,VALID,23.1485,VALID,76,VALID,0.437891,
2012-08-01, 03:06:05,VALID,1009.7,VALID,0,VALID,104,VALID,0.112112,VALID,23.129,VALID,76,VALID,0.3375,
2012-08-01, 03:07:05,VALID,1009.71,VALID,0,VALID,104,VALID,0,VALID,23.1095,VALID,76,VALID,0.166797,
2012-08-01, 03:08:05,VALID,1009.72,VALID,0,VALID,104,VALID,0.112112,VALID,23.0511,VALID,76,VALID,0,
2012-08-01, 03:09:05,VALID,1009.73,VALID,0,VALID,104,VALID,0.112112,VALID,22.9714,VALID,76,VALID,0,
2012-08-01, 03:10:05,VALID,1009.76,VALID,0,VALID,104,VALID,0,VALID,22.9147,VALID,76,VALID,0,
2012-08-01, 03:11:05,VALID,1009.77,VALID,0,VALID,104,VALID,0,VALID,22.8562,VALID,76,VALID,0,
2012-08-01, 03:12:05,VALID,1009.78,VALID,0,VALID,104,VALID,0.112112,VALID,22.8368,VALID,76,VALID,0.351563,
2012-08-01, 03:13:05,VALID,1009.79,VALID,0,VALID,104,VALID,0,VALID,22.7961,VALID,76,VALID,0.390625,
2012-08-01, 03:14:05,VALID,1009.78,VALID,0,VALID,104,VALID,0,VALID,22.7961,VALID,75,VALID,0.410547,
2012-08-01, 03:15:05,VALID,1009.82,VALID,0,VALID,104,VALID,0.112112,VALID,22.7961,VALID,75,VALID,0.5625,
2012-08-01, 03:16:05,VALID,1009.82,VALID,0,VALID,104,VALID,0,VALID,22.7766,VALID,75,VALID,0.396094,
2012-08-01, 03:17:05,VALID,1009.8,VALID,0,VALID,104,VALID,0.112112,VALID,22.7394,VALID,75,VALID,0,
2012-08-01, 03:18:05,VALID,1009.79,VALID,0,VALID,104,VALID,0.112112,VALID,22.6987,VALID,75,VALID,0,
2012-08-01, 03:19:05,VALID,1009.78,VALID,0,VALID,104,VALID,0.112112,VALID,22.6792,VALID,75,VALID,0,
2012-08-01, 03:20:05,VALID,1009.73,VALID,0,VALID,104,VALID,0.112112,VALID,22.6809,VALID,75,VALID,0,
2012-08-01, 03:21:05,VALID,1009.77,VALID,0,VALID,104,VALID,0,VALID,22.642,VALID,75,VALID,0,
2012-08-01, 03:22:05,VALID,1009.79,VALID,0,VALID,104,VALID,0.112112,VALID,22.5818,VALID,75,VALID,0,
2012-08-01, 03:23:05,VALID,1009.79,VALID,0,VALID,104,VALID,0.112112,VALID,22.5835,VALID,75,VALID,0.330469,
2012-08-01, 03:24:05,VALID,1009.82,VALID,0,VALID,104,VALID,0,VALID,22.5234,VALID,75,VALID,0.328125,
2012-08-01, 03:25:05,VALID,1009.85,VALID,0,VALID,104,VALID,0.112112,VALID,22.5056,VALID,75,VALID,0.0773437,
2012-08-01, 03:26:05,VALID,1009.86,VALID,0,VALID,104,VALID,0,VALID,22.4667,VALID,75,VALID,0,
2012-08-01, 03:27:05,VALID,1009.9,VALID,0,VALID,104,VALID,0.112112,VALID,22.4065,VALID,75,VALID,0,
2012-08-01, 03:28:05,VALID,1009.89,VALID,0,VALID,104,VALID,0.112112,VALID,22.3676,VALID,75,VALID,0,
2012-08-01, 03:29:05,VALID,1009.91,VALID,0,VALID,104,VALID,0.112112,VALID,22.3481,VALID,75,VALID,0,
2012-08-01, 03:30:05,VALID,1009.92,VALID,0,VALID,104,VALID,0,VALID,22.332,VALID,75,VALID,0,
2012-08-01, 03:31:05,VALID,1009.93,VALID,0,VALID,104,VALID,0,VALID,22.2914,VALID,75,VALID,0,
2012-08-01, 03:32:05,VALID,1009.92,VALID,0,VALID,104,VALID,0,VALID,22.3125,VALID,75,VALID,0,
2012-08-01, 03:33:05,VALID,1009.93,VALID,0,VALID,104,VALID,0,VALID,22.2736,VALID,75,VALID,0,
2012-08-01, 03:34:05,VALID,1009.94,VALID,0,VALID,104,VALID,0,VALID,22.2541,VALID,75,VALID,0,
2012-08-01, 03:35:05,VALID,1009.96,VALID,0,VALID,104,VALID,0,VALID,22.1923,VALID,75,VALID,0,
2012-08-01, 03:36:05,VALID,1009.97,VALID,0,VALID,104,VALID,0,VALID,22.1728,VALID,75,VALID,0.300391,
2012-08-01, 03:37:05,VALID,1009.95,VALID,0,VALID,104,VALID,0,VALID,22.1533,VALID,75,VALID,0.15,
2012-08-01, 03:38:05,VALID,1009.96,VALID,0,VALID,104,VALID,0,VALID,22.1355,VALID,75,VALID,0.0308594,
2012-08-01, 03:39:05,VALID,1009.95,VALID,0,VALID,104,VALID,0.112112,VALID,22.0949,VALID,75,VALID,0,
2012-08-01, 03:40:05,VALID,1009.95,VALID,0,VALID,104,VALID,0.112112,VALID,22.056,VALID,75,VALID,0,
2012-08-01, 03:41:05,VALID,1009.94,VALID,0,VALID,104,VALID,0,VALID,22.0365,VALID,75,VALID,0,
2012-08-01, 03:42:05,VALID,1009.94,VALID,0,VALID,104,VALID,0,VALID,22.0382,VALID,75,VALID,0,
2012-08-01, 03:43:05,VALID,1009.93,VALID,0,VALID,104,VALID,0.112112,VALID,21.9781,VALID,75,VALID,0,
2012-08-01, 03:44:05,VALID,1009.92,VALID,0,VALID,104,VALID,0.112112,VALID,21.9391,VALID,75,VALID,0,
2012-08-01, 03:45:05,VALID,1009.9,VALID,0,VALID,104,VALID,0,VALID,21.9424,VALID,75,VALID,0,
2012-08-01, 03:46:05,VALID,1009.89,VALID,0,VALID,104,VALID,0,VALID,21.9018,VALID,75,VALID,0.0667969,
2012-08-01, 03:47:05,VALID,1009.89,VALID,0,VALID,104,VALID,0,VALID,21.8824,VALID,75,VALID,0,
2012-08-01, 03:48:05,VALID,1009.92,VALID,0,VALID,104,VALID,0,VALID,21.8629,VALID,75,VALID,0,
2012-08-01, 03:49:05,VALID,1009.9,VALID,0,VALID,104,VALID,0,VALID,21.8434,VALID,74,VALID,0,